GW0996 Weather Reports


time (UTC)temp
C
wind
direction
speed
KPH
gust
KPH
rain 1hr
cm
rain 24hr
cm
rain mn
cm
humidity
%
barometer
mb
20260504060116 9 328 0.0 0.0 0.00 0.00 0.00 85 1018.7
20260504045554 6 328 0.0 0.0 0.00 0.00 0.00 92 1018.7
20260504045054 6 328 0.0 0.0 0.00 0.00 0.00 92 1018.6
20260504044553 6 328 0.0 0.0 0.00 0.00 0.00 92 1018.6
20260504044054 6 329 0.0 0.0 0.00 0.00 0.00 92 1018.5
20260504043553 5 328 0.0 0.0 0.00 0.00 0.00 92 1018.2
20260504042553 5 328 0.0 0.0 0.00 0.00 0.00 92 1018.4
20260504041552 6 328 0.0 0.0 0.00 0.00 0.00 92 1018.0
20260504041053 6 328 0.0 0.0 0.00 0.00 0.00 92 1018.3
20260504040552 6 328 0.0 0.0 0.00 0.00 0.00 92 1018.1
20260504040054 6 328 0.0 0.0 0.00 0.00 0.00 91 1018.2
20260504035553 6 329 0.0 0.0 0.00 0.00 0.00 91 1018.1
20260504034054 6 328 0.0 0.0 0.00 0.00 0.00 91 1018.1
20260504033540 6 328 0.0 0.0 0.00 0.00 0.00 91 1018.1
20260504033041 6 328 0.0 0.0 0.00 0.00 0.00 91 1018.0
20260504032540 6 328 0.0 0.0 0.00 0.00 0.00 90 1018.0
20260504032040 6 328 0.0 0.0 0.00 0.00 0.00 90 1018.1
20260504031539 6 328 0.0 0.0 0.00 0.00 0.00 90 1018.0
20260504030540 6 327 0.0 3.2 0.00 0.00 0.00 89 1018.0
20260504030040 6 330 0.0 3.2 0.00 0.00 0.00 89 1017.9
20260504025040 6 346 0.0 0.0 0.00 0.00 0.00 90 1018.0
20260504024540 6 347 0.0 0.0 0.00 0.00 0.00 89 1018.0
20260504024015 6 346 0.0 0.0 0.00 0.00 0.00 90 1018.1
20260504023503 6 351 0.0 0.0 0.00 0.00 0.00 89 1018.3
20260504023004 6 351 0.0 0.0 0.00 0.00 0.00 88 1018.1
20260504022504 6 351 0.0 0.0 0.00 0.00 0.00 88 1018.0
20260504022005 6 351 0.0 0.0 0.00 0.00 0.00 88 1018.1
20260504021442 6 351 0.0 0.0 0.00 0.00 0.00 89 1018.3
20260504020942 6 351 0.0 0.0 0.00 0.00 0.00 89 1018.2
20260504015928 6 351 0.0 0.0 0.00 0.00 0.00 88 1017.9
20260504014905 6 350 0.0 0.0 0.00 0.00 0.00 87 1018.1
20260504014404 6 350 0.0 0.0 0.00 0.00 0.00 86 1017.9
20260504013903 7 350 0.0 0.0 0.00 0.00 0.00 86 1018.0
20260504012905 7 350 0.0 0.0 0.00 0.00 0.00 85 1018.0
20260504012352 7 350 0.0 0.0 0.00 0.00 0.00 85 1018.0
20260504011839 7 350 0.0 0.0 0.00 0.00 0.00 85 1018.3
20260504010342 7 350 0.0 0.0 0.00 0.00 0.00 84 1018.0
20260504005840 7 350 0.0 0.0 0.00 0.00 0.00 84 1017.9
20260504005340 7 350 0.0 0.0 0.00 0.00 0.00 83 1018.1
20260504004840 7 350 0.0 0.0 0.00 0.00 0.00 83 1018.2
20260504003840 7 350 0.0 0.0 0.00 0.00 0.00 82 1018.0
20260504002841 8 350 0.0 0.0 0.00 0.00 0.00 81 1017.9
20260504002340 8 350 0.0 0.0 0.00 0.00 0.00 80 1018.0
20260504001841 8 350 0.0 0.0 0.00 0.00 0.00 80 1017.9
20260504001342 8 350 0.0 0.0 0.00 0.00 0.00 79 1018.0
20260504000840 8 350 0.0 1.6 0.00 0.00 0.00 78 1018.0
20260504000343 8 349 0.0 1.6 0.00 0.00 0.00 78 1018.0
20260503235840 8 9 0.0 0.0 0.00 0.00 0.00 79 1018.3
20260503235341 8 11 0.0 0.0 0.00 0.00 0.00 79 1018.0
20260503234815 8 11 0.0 1.6 0.00 0.00 0.00 79 1018.2
20260503233252 8 13 0.0 0.0 0.00 0.00 0.00 78 1018.2
20260503232753 8 13 0.0 0.0 0.00 0.00 0.00 78 1018.1
20260503231254 9 13 0.0 0.0 0.00 0.00 0.00 76 1018.1
20260503230752 9 13 0.0 0.0 0.00 0.00 0.00 77 1018.2
20260503230253 9 13 0.0 0.0 0.00 0.00 0.00 77 1018.2
20260503225753 9 13 0.0 0.0 0.00 0.00 0.00 75 1018.2
20260503225241 10 13 0.0 0.0 0.00 0.00 0.00 75 1018.2
20260503224740 10 11 0.0 0.0 0.00 0.00 0.00 75 1018.2
20260503224239 10 12 0.0 0.0 0.00 0.00 0.00 74 1018.2
20260503223741 10 12 0.0 1.6 0.00 0.00 0.00 74 1018.4
20260503223241 10 11 0.0 1.6 0.00 0.00 0.00 74 1018.3
20260503222728 10 14 0.0 0.0 0.00 0.00 0.00 74 1018.2
20260503222229 10 15 0.0 1.6 0.00 0.00 0.00 74 1018.3
20260503221728 10 14 0.0 1.6 0.00 0.00 0.00 75 1018.4
20260503221216 10 14 0.0 1.6 0.00 0.00 0.00 75 1018.5
20260503215717 11 15 0.0 1.6 0.00 0.00 0.00 75 1018.1
20260503215216 11 15 0.0 1.6 0.00 0.00 0.00 73 1018.0
20260503214708 11 13 0.0 1.6 0.00 0.00 0.00 73 1018.1
20260503214154 11 13 0.0 1.6 0.00 0.00 0.00 74 1018.0
20260503213151 11 23 0.0 1.6 0.00 0.00 0.00 73 1017.9
20260503212658 11 22 0.0 1.6 0.00 0.00 0.00 73 1018.1
20260503212151 11 72 0.0 0.0 0.00 0.00 0.00 73 1018.2
20260503211659 12 72 0.0 0.0 0.00 0.00 0.00 72 1018.1
20260503211154 12 72 0.0 0.0 0.00 0.00 0.00 72 1017.9
20260503210142 12 71 0.0 0.0 0.00 0.00 0.00 72 1017.9
20260503205142 12 71 0.0 1.6 0.00 0.00 0.00 71 1018.0
20260503204140 13 12 0.0 0.0 0.00 0.00 0.00 69 1018.0
20260503203142 13 6 0.0 0.0 0.00 0.00 0.00 69 1017.8
20260503202629 13 13 0.0 0.0 0.00 0.00 0.00 69 1017.8
20260503202129 13 348 0.0 0.0 0.00 0.00 0.00 68 1017.7
20260503201628 13 344 0.0 0.0 0.00 0.00 0.00 68 1017.7
20260503201115 14 344 0.0 0.0 0.00 0.00 0.00 68 1017.7
20260503200616 14 343 0.0 0.0 0.00 0.00 0.00 66 1017.7
20260503200116 14 338 0.0 1.6 0.00 0.00 0.00 66 1017.7
20260503195104 14 42 0.0 0.0 0.00 0.00 0.00 66 1017.5
20260503194604 15 40 0.0 0.0 0.00 0.00 0.00 66 1017.5
20260503194053 15 12 0.0 0.0 0.00 0.00 0.00 66 1017.6
20260503193053 15 7 0.0 1.6 0.00 0.00 0.00 65 1017.5
20260503192053 15 359 0.0 1.6 0.00 0.00 0.00 65 1017.4
20260503191552 15 350 0.0 1.6 0.00 0.00 0.00 65 1017.3
20260503191054 15 341 0.0 1.6 0.00 0.00 0.00 66 1017.3
20260503190552 15 345 0.0 1.6 0.00 0.00 0.00 66 1017.4
20260503190053 16 324 0.0 0.0 0.00 0.00 0.00 66 1017.3
20260503185553 16 324 0.0 1.6 0.00 0.00 0.00 65 1017.2
20260503185056 16 323 0.0 1.6 0.00 0.00 0.00 66 1016.9
20260503183542 16 336 0.0 1.6 0.00 0.00 0.00 66 1016.8
20260503183028 16 336 0.0 1.6 0.00 0.00 0.00 66 1016.6
20260503181454 17 313 0.0 3.2 0.00 0.00 0.00 64 1016.7
20260503180953 17 320 0.0 3.2 0.00 0.00 0.00 63 1016.4
20260503180454 18 63 0.0 3.2 0.00 0.00 0.00 62 1016.5
20260503175954 18 312 0.0 1.6 0.00 0.00 0.00 60 1016.5
20260503175453 18 312 0.0 1.6 0.00 0.00 0.00 58 1016.4
20260503174953 19 312 0.0 3.2 0.00 0.00 0.00 56 1016.4
20260503174453 20 312 0.0 3.2 0.00 0.00 0.00 54 1016.4
20260503173952 20 312 1.6 3.2 0.00 0.00 0.00 49 1016.2
20260503172954 21 312 1.6 4.8 0.00 0.00 0.00 47 1016.4
20260503172453 21 315 1.6 6.4 0.00 0.00 0.00 46 1016.4
20260503171952 21 315 3.2 6.4 0.00 0.00 0.00 45 1016.2
20260503171453 21 318 0.0 4.8 0.00 0.00 0.00 45 1016.3
20260503170939 21 316 0.0 4.8 0.00 0.00 0.00 45 1016.5
20260503170441 21 315 3.2 4.8 0.00 0.00 0.00 44 1016.2
20260503150942 23 309 3.2 11.3 0.00 0.00 0.00 42 1016.8
20260503150439 22 52 0.0 6.4 0.00 0.00 0.00 42 1016.7
20260503131353 24 318 0.0 9.7 0.00 0.00 0.00 38 1017.8
20260503130836 24 6 0.0 11.3 0.00 0.00 0.00 39 1017.8
20260503130338 24 306 3.2 14.5 0.00 0.00 0.00 38 1017.7
20260503110339 25 203 0.0 1.6 0.00 0.00 0.00 37 1018.3
20260503090328 21 146 0.0 1.6 0.00 0.00 0.00 44 1019.3
20260503081253 17 177 0.0 1.6 0.00 0.00 0.00 53 1019.6
20260503080751 16 177 0.0 1.6 0.00 0.00 0.00 58 1020.0
20260503080305 17 112 0.0 1.6 0.00 0.00 0.00 55 1020.1